• In United Kingdom
  • List of Countries
  • For 7 days
  • Water Temperature
  • Satellite Maps
  • Weather Map
  • Weather Widgets
  • user-avatar
    Login

    Hourly Weather Neuquén

    Today, 24 October, Wednesday

    Time Temperature Precipitation Wind Pressure Humidity
    00:00 +9°C° 0.8 mm 8 mps 735 mmHg 82%
    01:00 +9°C° 0.8 mm 8 mps 735 mmHg 83%
    02:00 +9°C° 0.5 mm 7 mps 735 mmHg 84%
    03:00 +9°C° 0.5 mm 6 mps 735 mmHg 84%
    04:00 +9°C° 0.5 mm 5 mps 734 mmHg 85%
    05:00 +10°C° 0.2 mm 5 mps 734 mmHg 82%
    06:00 +12°C° 0.2 mm 4 mps 735 mmHg 80%
    07:00 +12°C° 0.2 mm 4 mps 735 mmHg 78%
    08:00 +13°C° 0 mm 3 mps 735 mmHg 73%
    09:00 +15°C° 0 mm 2 mps 735 mmHg 68%
    10:00 +16°C° 0 mm 2 mps 735 mmHg 63%
    11:00 +17°C° 0.3 mm 3 mps 735 mmHg 58%
    12:00 +18°C° 0.3 mm 4 mps 735 mmHg 53%
    13:00 +19°C° 0.3 mm 5 mps 735 mmHg 48%
    14:00 +19°C° 0.1 mm 6 mps 735 mmHg 45%
    15:00 +20°C° 0.1 mm 6 mps 735 mmHg 43%
    16:00 +20°C° 0.1 mm 7 mps 735 mmHg 40%
    17:00 +19°C° 0 mm 6 mps 735 mmHg 44%
    18:00 +17°C° 0 mm 5 mps 736 mmHg 47%
    19:00 +17°C° 0 mm 4 mps 736 mmHg 51%
    20:00 +17°C° 0 mm 4 mps 736 mmHg 54%
    21:00 +15°C° 0 mm 4 mps 736 mmHg 57%
    22:00 +14°C° 0 mm 3 mps 737 mmHg 61%
    23:00 +14°C° 0 mm 3 mps 737 mmHg 63%

    Tomorrow, 25 October, Thursday

    Time Temperature Precipitation Wind Pressure Humidity
    00:00 +13°C° 0 mm 3 mps 737 mmHg 65%
    01:00 +13°C° 0 mm 2 mps 737 mmHg 68%
    02:00 +13°C° 0 mm 2 mps 737 mmHg 69%
    03:00 +13°C° 0 mm 2 mps 737 mmHg 69%
    04:00 +12°C° 0 mm 2 mps 737 mmHg 70%
    05:00 +14°C° 0 mm 1 mps 737 mmHg 65%
    06:00 +15°C° 0 mm 1 mps 737 mmHg 59%
    07:00 +16°C° 0 mm 1 mps 737 mmHg 54%
    08:00 +18°C° 0 mm 1 mps 737 mmHg 48%
    09:00 +20°C° 0 mm 1 mps 737 mmHg 43%
    10:00 +21°C° 0 mm 1 mps 737 mmHg 37%
    11:00 +22°C° 0 mm 1 mps 737 mmHg 35%
    12:00 +23°C° 0 mm 1 mps 736 mmHg 32%
    13:00 +24°C° 0 mm 1 mps 735 mmHg 29%
    14:00 +24°C° 0 mm 1 mps 735 mmHg 29%
    15:00 +24°C° 0 mm 1 mps 735 mmHg 28%
    16:00 +24°C° 0 mm 1 mps 734 mmHg 28%
    17:00 +24°C° 0 mm 2 mps 735 mmHg 30%
    18:00 +22°C° 0 mm 3 mps 735 mmHg 33%
    19:00 +22°C° 0 mm 4 mps 735 mmHg 35%
    20:00 +21°C° 0 mm 4 mps 735 mmHg 39%
    21:00 +20°C° 0 mm 5 mps 736 mmHg 43%
    22:00 +20°C° 0 mm 6 mps 736 mmHg 48%
    23:00 +19°C° 0 mm 6 mps 736 mmHg 51%

    Day after tomorrow, 26 October, Friday

    Time Temperature Precipitation Wind Pressure Humidity
    00:00 +17°C° 0 mm 6 mps 735 mmHg 55%
    01:00 +17°C° 0 mm 6 mps 735 mmHg 58%
    02:00 +16°C° 0.3 mm 6 mps 735 mmHg 63%
    03:00 +16°C° 0.3 mm 6 mps 735 mmHg 68%
    04:00 +15°C° 0.3 mm 5 mps 735 mmHg 73%
    05:00 +15°C° 0.8 mm 5 mps 735 mmHg 74%
    06:00 +16°C° 0.8 mm 5 mps 735 mmHg 75%
    07:00 +16°C° 0.8 mm 5 mps 735 mmHg 76%
    08:00 +18°C° 0.2 mm 4 mps 735 mmHg 70%
    09:00 +19°C° 0.2 mm 3 mps 735 mmHg 64%
    10:00 +20°C° 0.2 mm 3 mps 735 mmHg 58%
    11:00 +21°C° 0.2 mm 3 mps 735 mmHg 52%
    12:00 +22°C° 0.2 mm 3 mps 735 mmHg 45%
    13:00 +24°C° 0.2 mm 3 mps 734 mmHg 38%
    14:00 +25°C° 0 mm 3 mps 734 mmHg 37%
    15:00 +25°C° 0 mm 3 mps 733 mmHg 35%
    16:00 +25°C° 0 mm 3 mps 733 mmHg 33%
    17:00 +24°C° 0 mm 3 mps 733 mmHg 37%
    18:00 +23°C° 0 mm 2 mps 733 mmHg 41%
    19:00 +21°C° 0 mm 2 mps 733 mmHg 45%
    20:00 +21°C° 0 mm 2 mps 734 mmHg 48%
    21:00 +20°C° 0 mm 3 mps 734 mmHg 52%
    22:00 +20°C° 0 mm 3 mps 734 mmHg 56%
    23:00 +19°C° 0 mm 3 mps 734 mmHg 57%

    27 October, Saturday

    Time Temperature Precipitation Wind Pressure Humidity
    00:00 +19°C° 0 mm 3 mps 733 mmHg 58%
    01:00 +18°C° 0 mm 3 mps 733 mmHg 59%
    02:00 +18°C° 0 mm 3 mps 733 mmHg 58%
    03:00 +17°C° 0 mm 3 mps 733 mmHg 56%
    04:00 +17°C° 0 mm 3 mps 733 mmHg 55%
    05:00 +18°C° 0 mm 3 mps 733 mmHg 51%
    06:00 +19°C° 0 mm 3 mps 733 mmHg 48%
    07:00 +20°C° 0 mm 3 mps 733 mmHg 44%
    08:00 +21°C° 0 mm 3 mps 733 mmHg 41%
    09:00 +23°C° 0 mm 2 mps 733 mmHg 39%
    10:00 +24°C° 0 mm 2 mps 733 mmHg 36%
    11:00 +25°C° 0 mm 2 mps 733 mmHg 33%
    12:00 +26°C° 0 mm 2 mps 732 mmHg 30%
    13:00 +27°C° 0 mm 1 mps 732 mmHg 27%
    14:00 +27°C° 0 mm 2 mps 732 mmHg 26%
    15:00 +27°C° 0 mm 2 mps 731 mmHg 25%
    16:00 +28°C° 0 mm 2 mps 731 mmHg 24%
    17:00 +27°C° 0 mm 2 mps 731 mmHg 26%
    18:00 +26°C° 0 mm 3 mps 732 mmHg 29%
    19:00 +25°C° 0 mm 3 mps 732 mmHg 31%
    20:00 +25°C° 0 mm 3 mps 732 mmHg 34%
    21:00 +24°C° 0 mm 3 mps 732 mmHg 36%
    22:00 +24°C° 0 mm 3 mps 732 mmHg 39%
    23:00 +22°C° 0.1 mm 4 mps 732 mmHg 46%

    28 October, Sunday

    Time Temperature Precipitation Wind Pressure Humidity
    00:00 +21°C° 0.1 mm 4 mps 732 mmHg 52%
    01:00 +20°C° 0.1 mm 4 mps 732 mmHg 59%
    02:00 +20°C° 0.5 mm 4 mps 732 mmHg 64%
    03:00 +19°C° 0.5 mm 4 mps 732 mmHg 70%
    04:00 +19°C° 0.5 mm 4 mps 732 mmHg 75%
    05:00 +20°C° 0.2 mm 4 mps 732 mmHg 73%
    06:00 +20°C° 0.2 mm 3 mps 732 mmHg 71%
    07:00 +21°C° 0.2 mm 3 mps 732 mmHg 69%
    08:00 +22°C° 0.6 mm 3 mps 732 mmHg 61%
    09:00 +25°C° 0.6 mm 3 mps 732 mmHg 53%
    10:00 +26°C° 0.6 mm 3 mps 731 mmHg 44%
    11:00 +27°C° 0.1 mm 3 mps 731 mmHg 41%
    12:00 +27°C° 0.1 mm 3 mps 731 mmHg 38%
    13:00 +28°C° 0.1 mm 3 mps 730 mmHg 35%
    14:00 +27°C° 0.4 mm 4 mps 730 mmHg 36%
    15:00 +27°C° 0.4 mm 5 mps 730 mmHg 37%
    16:00 +26°C° 0.4 mm 6 mps 729 mmHg 38%
    17:00 +24°C° 0.1 mm 6 mps 730 mmHg 43%
    18:00 +23°C° 0.1 mm 5 mps 730 mmHg 48%
    19:00 +22°C° 0.1 mm 5 mps 730 mmHg 53%
    20:00 +21°C° 0 mm 4 mps 730 mmHg 54%
    21:00 +21°C° 0 mm 4 mps 730 mmHg 56%
    22:00 +20°C° 0 mm 3 mps 730 mmHg 57%
    23:00 +20°C° 0 mm 3 mps 730 mmHg 57%

    29 October, Monday

    Time Temperature Precipitation Wind Pressure Humidity
    00:00 +19°C° 0 mm 3 mps 730 mmHg 58%
    01:00 +19°C° 0 mm 3 mps 730 mmHg 58%
    02:00 +19°C° 0.1 mm 3 mps 730 mmHg 59%
    03:00 +19°C° 0.1 mm 3 mps 730 mmHg 60%
    04:00 +18°C° 0.1 mm 3 mps 730 mmHg 61%
    05:00 +19°C° 0.3 mm 3 mps 730 mmHg 60%
    06:00 +19°C° 0.3 mm 3 mps 731 mmHg 60%
    07:00 +19°C° 0.3 mm 3 mps 731 mmHg 60%
    08:00 +21°C° 0 mm 4 mps 731 mmHg 52%
    09:00 +23°C° 0 mm 5 mps 731 mmHg 43%
    10:00 +26°C° 0 mm 6 mps 730 mmHg 35%
    11:00 +26°C° 0.1 mm 6 mps 730 mmHg 35%
    12:00 +26°C° 0.1 mm 6 mps 729 mmHg 35%
    13:00 +26°C° 0.1 mm 7 mps 729 mmHg 35%
    14:00 +26°C° 0.4 mm 7 mps 729 mmHg 34%
    15:00 +26°C° 0.4 mm 7 mps 728 mmHg 34%
    16:00 +26°C° 0.4 mm 7 mps 728 mmHg 34%
    17:00 +24°C° 0.1 mm 6 mps 728 mmHg 35%
    18:00 +23°C° 0.1 mm 6 mps 729 mmHg 37%
    19:00 +22°C° 0.1 mm 5 mps 729 mmHg 39%
    20:00 +22°C° 0.1 mm 5 mps 729 mmHg 41%
    21:00 +21°C° 0.1 mm 5 mps 730 mmHg 42%
    22:00 +20°C° 0.1 mm 5 mps 730 mmHg 43%
    23:00 +19°C° 0 mm 5 mps 730 mmHg 44%

    30 October, Tuesday

    Time Temperature Precipitation Wind Pressure Humidity
    00:00 +19°C° 0 mm 6 mps 730 mmHg 45%
    01:00 +17°C° 0 mm 6 mps 730 mmHg 46%
    02:00 +17°C° 0 mm 6 mps 730 mmHg 46%
    03:00 +16°C° 0 mm 6 mps 730 mmHg 46%
    04:00 +16°C° 0 mm 6 mps 730 mmHg 47%
    05:00 +17°C° 0 mm 7 mps 731 mmHg 44%
    06:00 +18°C° 0 mm 7 mps 731 mmHg 41%
    07:00 +20°C° 0 mm 8 mps 732 mmHg 38%
    08:00 +21°C° 0 mm 8 mps 731 mmHg 36%
    09:00 +22°C° 0 mm 8 mps 731 mmHg 33%
    10:00 +23°C° 0 mm 8 mps 731 mmHg 31%
    11:00 +24°C° 0 mm 8 mps 731 mmHg 30%
    12:00 +24°C° 0 mm 8 mps 731 mmHg 28%
    13:00 +26°C° 0 mm 8 mps 730 mmHg 27%
    14:00 +26°C° 0 mm 8 mps 730 mmHg 27%
    15:00 +26°C° 0 mm 8 mps 730 mmHg 27%
    16:00 +26°C° 0 mm 8 mps 730 mmHg 26%
    17:00 +24°C° 0 mm 7 mps 730 mmHg 29%
    18:00 +23°C° 0 mm 7 mps 731 mmHg 32%
    19:00 +22°C° 0 mm 6 mps 731 mmHg 35%
    20:00 +21°C° 0 mm 5 mps 731 mmHg 37%
    21:00 +20°C° 0 mm 4 mps 731 mmHg 39%
    22:00 +20°C° 0 mm 4 mps 732 mmHg 41%
    23:00 +19°C° 0 mm 4 mps 731 mmHg 43%
    Show more